STARLINK-31675, 59548

Orbit data source: Space-Track

STARLINK-31675, 59548 is a payload satellite owned by SpaceX/Seattle (US) in LEO that was launched on Thu, 18 Apr 2024 UTC via an FALCON 9 launch vehicle from the Air Force Eastern Test Range (AFETR). Payload-class satellites include a variety of spacecraft equipped with specific instruments for various scientific and technological missions. These include communications satellites like Starlink; space stations such as the ISS; scientific satellites like the Hubble; Earth observation satellites from companies like Planet Labs, Umbra, and HawkEye 360; GPS; miniature CubeSats for education and research; and military/defense satellites.

Loading next visibility...
Identifier
59548, 2024-074Q
Orbit
LEO
Country
Flag of USUS
Related business
Manufacturer
SpaceX/Seattle
Mission
Operational Commercial Communications
Bus & Motor
STARLINK V2M, Unknown motor
Mass
730 kg wet, ~700 kg dry
Launch date (UTC)
2024-04-18 (2 years ago)
Launch vehicle
FALCON 9
Launch site
Air Force Eastern Test Range (AFETR)
Object type
Payload
Rocket body
Debris
Shape & HBR
Box + 2 Pan, 17.7 m
Radar Cross Section
33.884 m², Large (>1 m²)

Expand to show TLE details & history
Last TLE update: 2 days ago

TLE from 2 days ago
0 STARLINK-31675
1 59548U 24074Q   26171.26450264  .00009660  00000-0  36005-3 0  9992
2 59548  43.0021 124.0758 0002346 271.0206  89.0377 15.27583871121705
Epoch: 2026-06-20T06:20Z
TLE epoch observation values (Epoch: 2026-06-20T06:20:53.028Z)
Latitude
0.00001°
Longitude
120.37324°
Altitude
482.786 km
Speed
7.626 km/s
True Right ascension
08h 16m 18s
True Declination
0° 00' 00"
Sunlit
Object was in daylight at epoch
Visualization orbit readout
Latitude
Unknown
Longitude
Unknown
Altitude
Unknown
Speed
Unknown
Apparent Right ascension
Unknown
Apparent Declination
Unknown
Sunlit
N/A
Visualization observer readout
Local Sidereal Time
21:25:35
Azimuth
Unknown
Elevation
Unknown
Doppler factor
Unknown
Orbital elements
Apogee altitude
486.592 km
Perigee altitude
483.372 km
Semi-major axis
6,863.119 km
Eccentricity
0.00023
Inclination
43.0021°
RAAN
124.0758°
Arg. of periapsis
271.0206°
True anomaly
89.06458°
Mean anomaly
89.0377°
Eccentric anomaly
89.05114°
Mean motion
3.81734 °/min
Orbital period
94.31 mins
BSTAR
0.00036005
Loading maneuver chart data...
Computing Atmospheric mass density...
Loading historical data...
Loading historical data...
Loading historical data...
Loading historical data...
Loading historical data...
Loading historical data...
Loading historical data...

Documentation

Showing up to 5 results
|